La Push, WA

11:31 PM PST on February 07, 2016 (GMT -0800)
Quillayute

Weather History for KUIL - November, 2013

Change the Weather History Date:

Friday, November 15, 2013

  Actual Average Record
Temperature  
Mean Temperature 46 °F 44 °F  
Max Temperature 52 °F 50 °F 62 °F (1979)
Min Temperature 39 °F 38 °F 21 °F (2014)
Degree Days  
Heating Degree Days 19 21  
Month to date heating degree days 223 292  
Since 1 July heating degree days 902 1382  
Cooling Degree Days 0 0  
Month to date cooling degree days 0 0  
Year to date cooling degree days 39 19  
Moisture  
Dew Point 44 °F    
Average Humidity 80    
Maximum Humidity 93    
Minimum Humidity 66    
Precipitation  
Precipitation 0.88 in 0.52 in 3.63 in (1983)
Month to date precipitation 5.30 7.55  
Year to date precipitation 79.86 78.58  
Sea Level Pressure  
Sea Level Pressure 29.79 in    
Wind  
Wind Speed 8 mph (SW)    
Max Wind Speed 26 mph    
Max Gust Speed 40 mph    
Visibility 3 miles    
Events Fog , Rain    
T = Trace of Precipitation, MM = Missing Value Source: NWS Daily Summary

Daily Weather History Graph

Daily Weather History Graph

Search for Another Location

Airport or City:

Trip Planner

Search our weather history database for the weather conditions in past years. The results will help you decide how hot, cold, wet, or windy it might be!

Date:

Astronomy

Nov. 15, 2013 Rise Set
Actual Time 7:24 AM PST 4:40 PM PST
Civil Twilight 6:51 AM PST 5:14 PM PST
Nautical Twilight 6:13 AM PST 5:51 PM PST
Astronomical Twilight 5:36 AM PST 6:28 PM PST
Moon 3:46 PM PST (11/15) 5:19 AM PST (11/15)
Length of Visible Light 10h 23m
Length of Day
9h 15m
Waxing Gibbous, 97% of the Moon is Illuminated
Nov 15
Waxing Gibbous
Nov 17
Full
Nov 25
Last Quarter
Dec 2
New
Dec 9
First Quarter

Hourly Weather History & Observations

Time (PST) Temp. Windchill Dew Point Humidity Pressure Visibility Wind Dir Wind Speed Gust Speed Precip Events Conditions
12:53 AM 39.9 °F - 37.9 °F 93% 30.09 in 5.0 mi Calm Calm - N/A   Mostly Cloudy
1:21 AM 39.2 °F - 37.4 °F 93% 30.06 in 2.0 mi Calm Calm - N/A   Mostly Cloudy
1:27 AM 39.2 °F - 37.4 °F 93% 30.06 in 4.0 mi Calm Calm - N/A   Mostly Cloudy
1:51 AM 39.2 °F - 37.4 °F 93% 30.05 in 4.0 mi Calm Calm - N/A   Mostly Cloudy
1:53 AM 39.9 °F - 37.0 °F 89% 30.06 in 4.0 mi Calm Calm - N/A   Mostly Cloudy
2:10 AM 41.0 °F - 37.4 °F 87% 30.06 in 5.0 mi Calm Calm - N/A   Mostly Cloudy
2:53 AM 41.0 °F - 37.9 °F 89% 30.05 in 5.0 mi Calm Calm - N/A   Mostly Cloudy
3:28 AM 42.8 °F - 39.2 °F 87% 30.04 in 5.0 mi Calm Calm - N/A   Overcast
3:53 AM 43.0 °F - 39.9 °F 89% 30.04 in 6.0 mi Calm Calm - N/A   Overcast
4:00 AM 42.8 °F - 39.2 °F 87% 30.03 in 6.0 mi Calm Calm - N/A   Overcast
4:53 AM 43.0 °F - 39.9 °F 89% 30.02 in 6.0 mi Calm Calm - N/A   Overcast
5:42 AM 42.8 °F 40.1 °F 39.2 °F 87% 29.99 in 2.5 mi South 4.6 mph - 0.00 in Rain Light Rain
5:48 AM 44.6 °F - 39.2 °F 81% 29.99 in 3.0 mi Calm Calm - 0.00 in Rain Light Rain
5:53 AM 44.1 °F - 39.9 °F 85% 29.99 in 5.0 mi Calm Calm - 0.00 in   Overcast
6:02 AM 42.8 °F - 39.2 °F 87% 29.99 in 6.0 mi Calm Calm - N/A   Overcast
6:33 AM 44.6 °F - 41.0 °F 87% 29.99 in 1.8 mi Calm Calm - 0.00 in Rain Light Rain
6:42 AM 44.6 °F - 42.8 °F 93% 29.98 in 1.0 mi Calm Calm - 0.02 in Rain Rain
6:50 AM 44.6 °F - 42.8 °F 93% 29.98 in 2.0 mi Calm Calm - 0.03 in Rain Light Rain
6:53 AM 44.1 °F - 41.0 °F 89% 29.98 in 3.0 mi Calm Calm - 0.03 in Rain Light Rain
7:01 AM 44.6 °F - 41.0 °F 87% 29.97 in 1.8 mi Calm Calm - 0.00 in   Overcast
7:08 AM 44.6 °F 43.1 °F 41.0 °F 87% 29.97 in 2.0 mi SSE 3.5 mph - 0.00 in   Overcast
7:21 AM 44.6 °F 42.2 °F 41.0 °F 87% 29.95 in 1.2 mi SSE 4.6 mph - 0.00 in   Overcast
7:30 AM 42.8 °F 41.1 °F 41.0 °F 93% 29.96 in 0.8 mi SE 3.5 mph - 0.00 in   Overcast
7:37 AM 42.8 °F 41.1 °F 41.0 °F 93% 29.95 in 1.0 mi SSE 3.5 mph - 0.00 in   Overcast
7:44 AM 44.6 °F 43.1 °F 41.0 °F 87% 29.95 in 0.5 mi SSE 3.5 mph - 0.00 in Fog , Rain Light Rain
7:53 AM 44.1 °F 42.5 °F 41.0 °F 89% 29.95 in 0.8 mi SSE 3.5 mph - 0.01 in Rain Light Rain
8:10 AM 44.6 °F - 42.8 °F 93% 29.94 in 0.8 mi Calm Calm - 0.05 in Rain Heavy Rain
8:18 AM 46.4 °F 45.2 °F 42.8 °F 87% 29.93 in 1.0 mi WSW 3.5 mph - 0.07 in Rain Rain
8:24 AM 46.4 °F 45.2 °F 44.6 °F 93% 29.93 in 2.0 mi WSW 3.5 mph - 0.08 in Rain Light Rain
8:30 AM 46.4 °F 44.3 °F 44.6 °F 93% 29.93 in 4.0 mi SW 4.6 mph - 0.08 in Rain Light Rain
8:34 AM 46.4 °F 45.2 °F 44.6 °F 93% 29.92 in 4.0 mi South 3.5 mph - 0.08 in Rain Light Rain
8:48 AM 46.4 °F - 44.6 °F 93% 29.92 in 1.8 mi Calm Calm - 0.09 in Rain Rain
8:53 AM 46.9 °F - 44.1 °F 90% 29.92 in 1.8 mi West 8.1 mph - 0.10 in Rain Light Rain
8:57 AM 48.2 °F - 44.6 °F 87% 29.92 in 3.0 mi West 8.1 mph - 0.00 in Rain Light Rain
9:06 AM 48.2 °F - 44.6 °F 87% 29.91 in 4.0 mi SSW 3.5 mph - 0.01 in Rain Light Rain
9:35 AM 48.2 °F - 44.6 °F 87% 29.90 in 2.5 mi Calm Calm - 0.01 in Rain Light Rain
9:42 AM 48.2 °F - 44.6 °F 87% 29.89 in 1.5 mi Calm Calm - 0.02 in Rain Light Rain
9:47 AM 46.4 °F - 44.6 °F 93% 29.89 in 1.2 mi Calm Calm - 0.03 in Rain Rain
9:53 AM 48.0 °F - 45.0 °F 89% 29.90 in 1.2 mi West 12.7 mph 16.1 mph 0.03 in Rain Light Rain
10:05 AM 48.2 °F - 44.6 °F 87% 29.89 in 1.8 mi WSW 11.5 mph - 0.02 in Rain Light Rain
10:07 AM 48.2 °F - 44.6 °F 87% 29.89 in 2.0 mi WSW 11.5 mph - 0.02 in Rain Light Rain
10:20 AM 48.2 °F - 44.6 °F 87% 29.89 in 3.0 mi SW 8.1 mph 19.6 mph 0.04 in Rain Light Rain
10:40 AM 48.2 °F - 44.6 °F 87% 29.87 in 2.5 mi SSW 3.5 mph - 0.05 in Rain Light Rain
10:49 AM 48.2 °F - 44.6 °F 87% 29.87 in 2.0 mi SSW 5.8 mph - 0.06 in Rain Light Rain
10:53 AM 48.0 °F - 45.0 °F 89% 29.87 in 2.5 mi SSW 5.8 mph - 0.06 in Rain Light Rain
11:04 AM 48.2 °F - 44.6 °F 87% 29.85 in 2.0 mi Variable 5.8 mph - 0.01 in Rain Light Rain
11:15 AM 48.2 °F - 44.6 °F 87% 29.84 in 3.0 mi SW 8.1 mph - 0.01 in Rain Light Rain
11:35 AM 48.2 °F - 44.6 °F 87% 29.83 in 2.0 mi SSW 5.8 mph - 0.03 in Rain Light Rain
11:43 AM 48.2 °F - 44.6 °F 87% 29.83 in 2.0 mi WSW 9.2 mph - 0.04 in Rain Rain
11:53 AM 48.9 °F - 45.0 °F 86% 29.82 in 2.0 mi SW 10.4 mph - 0.04 in Rain Light Rain
12:03 PM 48.2 °F - 44.6 °F 87% 29.80 in 1.8 mi SSW 6.9 mph - 0.02 in Rain Light Rain
12:10 PM 48.2 °F - 46.4 °F 93% 29.79 in 2.0 mi SW 9.2 mph - 0.03 in Rain Light Rain
12:20 PM 48.2 °F - 46.4 °F 93% 29.78 in 1.8 mi SW 10.4 mph - 0.04 in Rain Light Rain
12:29 PM 48.2 °F - 46.4 °F 93% 29.77 in 2.5 mi SW 8.1 mph - 0.05 in Rain Light Rain
12:46 PM 48.2 °F - 46.4 °F 93% 29.75 in 1.8 mi SW 11.5 mph - 0.07 in Rain Rain
12:53 PM 48.9 °F - 46.0 °F 90% 29.75 in 1.5 mi SW 8.1 mph - 0.08 in Rain Rain
1:03 PM 48.2 °F - 46.4 °F 93% 29.72 in 1.2 mi SSW 10.4 mph 18.4 mph 0.02 in Rain Light Rain
1:13 PM 48.2 °F - 46.4 °F 93% 29.72 in 1.8 mi SSW 12.7 mph 18.4 mph 0.03 in Rain Light Rain
1:53 PM 50.0 °F - 46.9 °F 89% 29.69 in 1.8 mi SW 11.5 mph 18.4 mph 0.08 in Rain Rain
2:30 PM 50.0 °F - 46.4 °F 87% 29.66 in 2.0 mi SW 12.7 mph 19.6 mph 0.06 in Rain Rain
2:38 PM 50.0 °F - 46.4 °F 87% 29.65 in 1.8 mi SW 16.1 mph - 0.07 in Rain Light Rain
2:49 PM 51.8 °F - 46.4 °F 82% 29.64 in 1.0 mi WSW 12.7 mph 23.0 mph 0.10 in Rain Rain
2:53 PM 51.1 °F - 46.9 °F 86% 29.65 in 1.5 mi WSW 15.0 mph 23.0 mph 0.11 in Rain Rain
3:02 PM 51.8 °F - 48.2 °F 88% 29.63 in 2.5 mi WSW 13.8 mph - 0.01 in Rain Light Rain
3:31 PM 51.8 °F - 48.2 °F 88% 29.61 in 1.8 mi SW 12.7 mph 19.6 mph 0.05 in Rain Rain
3:41 PM 51.8 °F - 48.2 °F 88% 29.60 in 2.0 mi SW 10.4 mph 23.0 mph 0.06 in Rain Light Rain
3:51 PM 51.8 °F - 48.2 °F 88% 29.58 in 1.5 mi SW 12.7 mph - 0.08 in Rain Rain
3:53 PM 51.1 °F - 48.0 °F 89% 29.58 in 1.5 mi SW 10.4 mph 20.7 mph 0.08 in Rain Rain
4:08 PM 51.8 °F - 48.2 °F 88% 29.57 in 1.2 mi SW 15.0 mph 23.0 mph 0.04 in Rain Rain
4:31 PM 51.8 °F - 48.2 °F 88% 29.54 in 2.0 mi SW 15.0 mph 24.2 mph 0.09 in Rain Rain
4:48 PM 51.8 °F - 48.2 °F 88% 29.53 in 1.8 mi WSW 17.3 mph 26.5 mph 0.14 in Rain Rain
4:53 PM 51.1 °F - 48.0 °F 89% 29.53 in 1.8 mi SW 15.0 mph 26.5 mph 0.15 in Rain Rain
5:04 PM 51.8 °F - 48.2 °F 88% 29.52 in 2.5 mi WSW 16.1 mph 26.5 mph 0.01 in Rain Light Rain
5:27 PM 51.8 °F - 48.2 °F 88% 29.51 in 1.2 mi West 18.4 mph 25.3 mph 0.04 in Rain Rain
5:38 PM 51.8 °F - 48.2 °F 88% 29.50 in 1.8 mi West 15.0 mph 40.3 mph 0.06 in Rain Light Rain
5:53 PM 51.1 °F - 48.0 °F 89% 29.49 in 2.0 mi West 16.1 mph 26.5 mph 0.07 in Rain Light Rain
6:07 PM 51.8 °F - 48.2 °F 88% 29.48 in 4.0 mi West 12.7 mph 25.3 mph 0.01 in Rain Light Rain
6:53 PM 51.1 °F - 48.0 °F 89% 29.48 in 7.0 mi West 12.7 mph 26.5 mph 0.01 in   Overcast
7:12 PM 48.2 °F - 44.6 °F 87% 29.47 in 2.0 mi WNW 11.5 mph 27.6 mph 0.02 in Rain Light Rain
7:16 PM 48.2 °F - 44.6 °F 87% 29.47 in 3.0 mi WNW 11.5 mph 20.7 mph 0.02 in Rain Light Rain
7:28 PM 48.2 °F - 44.6 °F 87% 29.47 in 6.0 mi WNW 8.1 mph 17.3 mph 0.02 in   Haze
7:53 PM 48.9 °F - 43.0 °F 80% 29.47 in 6.0 mi WNW 9.2 mph 24.2 mph 0.02 in   Haze
8:53 PM 48.0 °F - 41.0 °F 77% 29.46 in 4.0 mi West 18.4 mph 26.5 mph 0.00 in Rain Light Rain
9:53 PM 48.0 °F - 39.9 °F 74% 29.45 in 6.0 mi West 13.8 mph 26.5 mph 0.01 in   Haze
10:50 PM 48.2 °F - 39.2 °F 71% 29.44 in 5.0 mi WNW 21.9 mph 31.1 mph N/A   Haze
10:53 PM 48.0 °F - 37.9 °F 68% 29.44 in 5.0 mi WNW 15.0 mph 31.1 mph N/A   Haze
11:43 PM 48.2 °F - 37.4 °F 66% 29.43 in 6.0 mi WNW 17.3 mph 26.5 mph N/A   Haze
11:53 PM 48.0 °F - 37.0 °F 66% 29.44 in 6.0 mi WNW 12.7 mph 27.6 mph N/A   Haze